Arctic Village, AK

4:45 AM AKDT on September 22, 2017 (GMT -0800)
Arctic Village

Weather History for PARC - September, 2012

Change the Weather History Date:

Tuesday, September 11, 2012

  Actual Average Record
Temperature  
Mean Temperature 34 °F -  
Max Temperature 39 °F 49 °F 65 °F (1989)
Min Temperature 28 °F 23 °F 10 °F (1992)
Degree Days  
Heating Degree Days 32    
Moisture  
Dew Point 27 °F    
Average Humidity 75    
Maximum Humidity 100    
Minimum Humidity 52    
Precipitation  
Precipitation 0.00 in - - ()
Sea Level Pressure  
Sea Level Pressure 29.99 in    
Wind  
Wind Speed 5 mph (ENE)    
Max Wind Speed 13 mph    
Max Gust Speed -    
Visibility 9 miles    
Events      
Averages and records for this station are not official NWS values.
T = Trace of Precipitation, MM = Missing Value Source: NWS Daily Summary

Daily Weather History Graph

Daily Weather History Graph

Search for Another Location

Airport or City:

Trip Planner

Search our weather history database for the weather conditions in past years. The results will help you decide how hot, cold, wet, or windy it might be!

Date:

Astronomy

Sep. 11, 2012 Rise Set
Actual Time 6:46 AM AKDT 8:28 PM AKDT
Civil Twilight 5:47 AM AKDT 9:27 PM AKDT
Nautical Twilight 4:25 AM AKDT 10:47 PM AKDT
Astronomical Twilight 2:11 AM AKDT 1:06 AM AKDT
Moon 12:07 AM AKDT (9/11) 7:20 PM AKDT (9/11)
Length of Visible Light 15h 39m
Length of Day
13h 41m
Waning Crescent, 20% of the Moon is Illuminated
Sep 11
Waning Crescent
Sep 15
New
Sep 22
First Quarter
Sep 29
Full
Oct 7
Last Quarter

Hourly Weather History & Observations

Time (AKDT) Temp. Windchill Dew Point Humidity Pressure Visibility Wind Dir Wind Speed Gust Speed Precip Events Conditions
12:16 AM 33.8 °F 29.6 °F 24.8 °F 70% 30.00 in 10.0 mi ENE 4.6 mph - N/A   Overcast
12:36 AM 32.0 °F 28.7 °F 24.8 °F 75% 30.01 in 10.0 mi East 3.5 mph - N/A   Overcast
12:56 AM 32.0 °F - 24.8 °F 75% 30.01 in 10.0 mi Calm Calm - N/A   Overcast
1:16 AM 30.2 °F 26.7 °F 24.8 °F 80% 30.01 in 10.0 mi East 3.5 mph - N/A   Mostly Cloudy
1:36 AM 30.2 °F - 24.8 °F 80% 30.01 in 10.0 mi Calm Calm - N/A   Mostly Cloudy
1:56 AM 30.2 °F - 24.8 °F 80% 30.02 in 10.0 mi Calm Calm - N/A   Overcast
2:16 AM 30.2 °F - 24.8 °F 80% 30.02 in 10.0 mi Calm Calm - N/A   Mostly Cloudy
2:36 AM 30.2 °F 26.7 °F 24.8 °F 80% 30.02 in 10.0 mi NNE 3.5 mph - N/A   Overcast
2:56 AM 30.2 °F - 24.8 °F 80% 30.02 in 10.0 mi Calm Calm - N/A   Overcast
3:16 AM 30.2 °F 26.7 °F 24.8 °F 80% 30.02 in 10.0 mi NNE 3.5 mph - N/A   Overcast
3:36 AM 30.2 °F 25.4 °F 26.6 °F 86% 30.02 in 10.0 mi ENE 4.6 mph - N/A   Overcast
4:36 AM 30.2 °F 26.7 °F 28.4 °F 93% 30.02 in 10.0 mi NE 3.5 mph - N/A   Overcast
4:56 AM 30.2 °F 25.4 °F 28.4 °F 93% 30.02 in 10.0 mi East 4.6 mph - N/A   Overcast
5:16 AM 30.2 °F 26.7 °F 28.4 °F 93% 30.02 in 10.0 mi East 3.5 mph - N/A   Overcast
5:36 AM 30.2 °F - 28.4 °F 93% 30.02 in 8.0 mi Calm Calm - N/A   Overcast
5:56 AM 30.2 °F 26.7 °F 28.4 °F 93% 30.02 in 9.0 mi NE 3.5 mph - N/A   Overcast
6:16 AM 28.4 °F 24.6 °F 28.4 °F 100% 30.02 in 10.0 mi NE 3.5 mph - N/A   Overcast
6:36 AM 28.4 °F 23.3 °F 28.4 °F 100% 30.02 in 10.0 mi East 4.6 mph - N/A   Overcast
6:56 AM 30.2 °F 24.3 °F 28.4 °F 93% 30.02 in 10.0 mi ENE 5.8 mph - N/A   Mostly Cloudy
7:16 AM 30.2 °F 24.3 °F 28.4 °F 93% 30.02 in 10.0 mi East 5.8 mph - N/A   Overcast
7:36 AM 30.2 °F 25.4 °F 28.4 °F 93% 30.02 in 9.0 mi ENE 4.6 mph - N/A   Overcast
7:56 AM 30.2 °F 25.4 °F 28.4 °F 93% 30.02 in 8.0 mi ENE 4.6 mph - N/A   Overcast
8:16 AM 30.2 °F 24.3 °F 28.4 °F 93% 30.02 in 5.0 mi ENE 5.8 mph - N/A   Overcast
8:36 AM 30.2 °F 22.6 °F 28.4 °F 93% 30.02 in 2.0 mi NE 8.1 mph - N/A   Overcast
8:56 AM 30.2 °F 23.4 °F 28.4 °F 93% 30.02 in 4.0 mi NE 6.9 mph - N/A   Overcast
9:16 AM 30.2 °F 22.6 °F 28.4 °F 93% 30.02 in 5.0 mi NE 8.1 mph - N/A   Overcast
9:36 AM 32.0 °F 25.6 °F 30.2 °F 93% 30.02 in 5.0 mi NE 6.9 mph - N/A   Overcast
9:56 AM 33.8 °F 26.4 °F 30.2 °F 87% 30.02 in 5.0 mi ENE 9.2 mph - N/A   Overcast
10:16 AM 33.8 °F 26.4 °F 30.2 °F 87% 30.02 in 10.0 mi NNE 9.2 mph - N/A   Mostly Cloudy
10:36 AM 33.8 °F 27.0 °F 30.2 °F 87% 30.02 in 10.0 mi NNE 8.1 mph - N/A   Overcast
10:56 AM 35.6 °F 29.9 °F 30.2 °F 81% 30.02 in 10.0 mi NNE 6.9 mph - N/A   Overcast
11:16 AM 35.6 °F 29.9 °F 30.2 °F 81% 30.02 in 10.0 mi NNE 6.9 mph - N/A   Overcast
11:36 AM 35.6 °F 29.2 °F 30.2 °F 81% 30.02 in 10.0 mi NNE 8.1 mph - N/A   Overcast
11:56 AM 35.6 °F 29.2 °F 28.4 °F 75% 30.02 in 10.0 mi NNE 8.1 mph - N/A   Overcast
12:16 PM 35.6 °F 28.6 °F 30.2 °F 81% 30.02 in 10.0 mi NE 9.2 mph - N/A   Overcast
12:36 PM 35.6 °F 27.5 °F 30.2 °F 81% 30.02 in 9.0 mi ENE 11.5 mph - N/A   Overcast
12:56 PM 35.6 °F 29.9 °F 30.2 °F 81% 30.02 in 10.0 mi NNE 6.9 mph - N/A   Mostly Cloudy
1:16 PM 37.4 °F 32.1 °F 30.2 °F 75% 30.01 in 10.0 mi NNE 6.9 mph - N/A   Overcast
1:36 PM 37.4 °F 32.1 °F 30.2 °F 75% 30.01 in 10.0 mi NNE 6.9 mph - N/A   Overcast
1:56 PM 37.4 °F 31.4 °F 28.4 °F 70% 30.01 in 10.0 mi NNE 8.1 mph - N/A   Overcast
2:16 PM 37.4 °F 31.4 °F 28.4 °F 70% 30.01 in 10.0 mi NNE 8.1 mph - N/A   Overcast
2:36 PM 37.4 °F 32.1 °F 28.4 °F 70% 30.00 in 10.0 mi NE 6.9 mph - N/A   Overcast
2:56 PM 39.2 °F 34.2 °F 28.4 °F 65% 30.00 in 10.0 mi NE 6.9 mph - N/A   Overcast
3:16 PM 39.2 °F 32.5 °F 26.6 °F 61% 29.99 in 10.0 mi East 10.4 mph - N/A   Overcast
3:36 PM 39.2 °F 34.2 °F 26.6 °F 61% 29.99 in 10.0 mi NE 6.9 mph - N/A   Overcast
3:56 PM 39.2 °F 33.6 °F 24.8 °F 56% 29.99 in 10.0 mi East 8.1 mph - N/A   Overcast
4:16 PM 39.2 °F 33.0 °F 24.8 °F 56% 29.98 in 10.0 mi East 9.2 mph - N/A   Overcast
4:36 PM 39.2 °F 33.0 °F 24.8 °F 56% 29.97 in 10.0 mi East 9.2 mph - N/A   Overcast
4:56 PM 39.2 °F 32.0 °F 24.8 °F 56% 29.97 in 10.0 mi East 11.5 mph - N/A   Overcast
5:16 PM 39.2 °F 32.5 °F 24.8 °F 56% 29.97 in 10.0 mi East 10.4 mph - N/A   Scattered Clouds
5:36 PM 39.2 °F 34.2 °F 24.8 °F 56% 29.96 in 10.0 mi ENE 6.9 mph - N/A   Mostly Cloudy
5:56 PM 39.2 °F 32.0 °F 23.0 °F 52% 29.96 in 10.0 mi East 11.5 mph - N/A   Overcast
6:16 PM 39.2 °F 32.5 °F 23.0 °F 52% 29.95 in 10.0 mi East 10.4 mph - N/A   Overcast
6:36 PM 39.2 °F 32.5 °F 24.8 °F 56% 29.95 in 10.0 mi ESE 10.4 mph - N/A   Overcast
6:56 PM 39.2 °F 31.6 °F 24.8 °F 56% 29.95 in 10.0 mi East 12.7 mph - N/A   Overcast
7:16 PM 39.2 °F 33.6 °F 24.8 °F 56% 29.95 in 10.0 mi East 8.1 mph - N/A   Overcast
7:36 PM 39.2 °F 34.2 °F 24.8 °F 56% 29.94 in 10.0 mi East 6.9 mph - N/A   Overcast
7:56 PM 39.2 °F 33.0 °F 24.8 °F 56% 29.94 in 10.0 mi East 9.2 mph - N/A   Overcast
8:16 PM 39.2 °F 35.0 °F 24.8 °F 56% 29.94 in 10.0 mi East 5.8 mph - N/A   Overcast
8:36 PM 37.4 °F 34.9 °F 24.8 °F 60% 29.93 in 10.0 mi East 3.5 mph - N/A   Overcast
8:56 PM 37.4 °F 33.8 °F 24.8 °F 60% 29.93 in 10.0 mi ENE 4.6 mph - N/A   Overcast
9:16 PM 37.4 °F 30.3 °F 24.8 °F 60% 29.93 in 10.0 mi East 10.4 mph - N/A   Overcast
9:36 PM 37.4 °F 30.8 °F 26.6 °F 65% 29.93 in 10.0 mi ESE 9.2 mph - N/A   Overcast
9:56 PM 35.6 °F 28.6 °F 26.6 °F 70% 29.92 in 10.0 mi East 9.2 mph - N/A   Overcast
10:16 PM 35.6 °F 28.0 °F 26.6 °F 70% 29.92 in 10.0 mi East 10.4 mph - N/A   Overcast
10:36 PM 35.6 °F 29.2 °F 26.6 °F 70% 29.92 in 10.0 mi ESE 8.1 mph - N/A   Overcast
10:56 PM 35.6 °F - 26.6 °F 70% 29.92 in 10.0 mi Calm Calm - N/A   Overcast
11:16 PM 35.6 °F 32.8 °F 26.6 °F 70% 29.92 in 10.0 mi SE 3.5 mph - N/A   Overcast
11:36 PM 33.8 °F 28.6 °F 26.6 °F 75% 29.92 in 10.0 mi NE 5.8 mph - N/A   Overcast
11:56 PM 33.8 °F 28.6 °F 28.4 °F 81% 29.91 in 10.0 mi North 5.8 mph - N/A   Overcast